{"data":{"norad_id":45426,"epoch":"2026-05-25T03:25:12.227232Z","epoch_age_seconds":62971,"freshness":"FRESH","line1":"1 45426U 20020C   26145.14250263 -.00000216  00000+0 -64466-3 0  9995","line2":"2 45426  87.8917  25.6504 0001482  77.5324 282.5970 13.11414729299688","mean_motion":13.11414729,"eccentricity":0.0001482,"inclination_deg":87.8917,"raan_deg":25.6504,"arg_perigee_deg":77.5324,"mean_anomaly_deg":282.597,"bstar":-0.00064466,"rev_number":29968,"period_min":109.80508058637,"perigee_km":1216.5655534575,"apogee_km":1218.8169569524,"semimajor_km":7595.8282552049,"source":"CELESTRAK","updated_at":"2026-05-25T13:38:22.341011Z"}}